星链-6204 (STARLINK-6204 )

导读 | 星芒AI

STARLINK-6204 是 SpaceX 星链计划中的一颗低轨通信卫星,属于第六批发射的星链卫星群。该卫星运行在约 550 公里的近地轨道,旨在为全球用户提供高速互联网服务。作为星链网络的一部分,STARLINK-6204 采用先进推进系统,具备自主变轨和避障能力,提高了运行安全性和任务灵活性。该卫星支持宽带通信,助力偏远地区实现网络覆盖,推动全球互联网普及。

基本信息
目录编号:
56488
目录名称:
STARLINK-6204
国际标识:
2023-064AS
轨道中心:
EARTH
卫星名称:
星链-6204
卫星全名:
星链-6204 (STARLINK-6204 )
卫星状态:
在轨 (已飞行956 天)
发射日期:
2023-05-10 UTC
国别 :
美国 (US)
星等 :
--
轨道信息
数据来源 国际轨道数据
星历时间: 2025-12-21T12:53:56+0800
14小时前
查看轨道信息
半长轴: 6950.176km
偏心率: 0.0003223
轨道倾角: 69.999°
近地点辐角 272.630°
升交点赤经 302.445°
平近点角 87.449°
近地点: 569.798km
远地点: 574.28km
周期: 96.107分钟
每日圈数: 14.983356
详细信息
固有亮度:
5
最大亮度:
2.5
卫星平台:
Starlink v1.5
覆盖范围:
全球
运营商:
太空探索技术公司
运营商所在国:
美国
制造商(研发单位):
太空探索技术公司
制造商所在国:
美国
使用方式:
暂无
卫星简介
星链(Starlink)计划是由太空探索技术公司(SpaceX)提出的一个巨型低轨卫星互联网星座项目,计划在2019年至2024年间在太空搭建由约1.2万颗卫星组成的“星链”网络,其中1584颗将部署在地球上空550千米处的近地轨道,并从2020年开始工作。该卫星仍在工作。
2D轨道图
3D轨道图
轨道高度分析图
轨道倾角分析图
轨道综合分析图
查看轨道综合分析图